| time (UTC) | temp C | wind direction | speed KPH | gust KPH | rain 1hr cm | rain 24hr cm | rain mn cm | humidity % | barometer mb |
| 20260510143517 | 21 | 0.0 | 0.0 | 0.00 | 0.00 | 0.00 | 71 | 1008.1 | |
| 20260510142517 | 20 | 0.0 | 0.0 | 0.00 | 0.00 | 0.00 | 70 | 1007.9 | |
| 20260510141516 | 19 | 0.0 | 0.0 | 0.00 | 0.00 | 0.00 | 76 | 1007.9 | |
| 20260510140517 | 19 | 0.0 | 0.0 | 0.00 | 0.00 | 0.00 | 77 | 1007.9 | |
| 20260510135516 | 18 | 0.0 | 0.0 | 0.00 | 0.00 | 0.00 | 79 | 1008.0 | |
| 20260510134537 | 18 | 0.0 | 0.0 | 0.00 | 0.00 | 0.00 | 81 | 1008.0 | |
| 20260510133537 | 17 | 0.0 | 0.0 | 0.00 | 0.00 | 0.00 | 81 | 1008.0 | |
| 20260510132537 | 17 | 0.0 | 0.0 | 0.00 | 0.00 | 0.00 | 82 | 1007.8 | |
| 20260510131516 | 17 | 0.0 | 0.0 | 0.00 | 0.00 | 0.00 | 82 | 1007.7 | |
| 20260510130517 | 16 | 0.0 | 0.0 | 0.00 | 0.00 | 0.00 | 84 | 1007.9 | |
| 20260510125516 | 16 | 0.0 | 0.0 | 0.00 | 0.00 | 0.00 | 89 | 1008.1 | |
| 20260510124516 | 15 | 0.0 | 0.0 | 0.00 | 0.00 | 0.00 | 93 | 1008.2 | |
| 20260510123517 | 14 | 0.0 | 0.0 | 0.00 | 0.00 | 0.00 | 94 | 1008.2 | |
| 20260510122517 | 13 | 0.0 | 0.0 | 0.00 | 0.00 | 0.00 | 96 | 1008.2 | |
| 20260510121517 | 13 | 0.0 | 0.0 | 0.00 | 0.00 | 0.00 | 96 | 1008.0 | |
| 20260510120517 | 12 | 0.0 | 0.0 | 0.00 | 0.00 | 0.00 | 96 | 1007.8 | |
| 20260510115516 | 12 | 0.0 | 0.0 | 0.00 | 0.00 | 0.00 | 96 | 1007.7 | |
| 20260510114516 | 12 | 0.0 | 0.0 | 0.00 | 0.00 | 0.00 | 97 | 1007.5 | |
| 20260510113517 | 11 | 0.0 | 0.0 | 0.00 | 0.00 | 0.00 | 97 | 1007.5 | |
| 20260510112516 | 11 | 0.0 | 0.0 | 0.00 | 0.00 | 0.00 | 97 | 1007.3 | |
| 20260510111516 | 11 | 0.0 | 0.0 | 0.00 | 0.00 | 0.00 | 97 | 1007.1 | |
| 20260510110517 | 11 | 0.0 | 0.0 | 0.00 | 0.00 | 0.00 | 97 | 1007.0 | |
| 20260510105516 | 11 | 0.0 | 0.0 | 0.00 | 0.00 | 0.00 | 97 | 1006.9 | |
| 20260510104516 | 11 | 0.0 | 0.0 | 0.00 | 0.00 | 0.00 | 97 | 1006.8 | |
| 20260510103517 | 11 | 0.0 | 0.0 | 0.00 | 0.00 | 0.00 | 97 | 1006.7 | |
| 20260510102516 | 11 | 0.0 | 0.0 | 0.00 | 0.00 | 0.00 | 97 | 1006.6 | |
| 20260510101517 | 11 | 0.0 | 0.0 | 0.00 | 0.00 | 0.00 | 97 | 1006.5 | |
| 20260510100517 | 11 | 0.0 | 0.0 | 0.00 | 0.00 | 0.00 | 97 | 1006.3 | |
| 20260510095516 | 11 | 0.0 | 0.0 | 0.00 | 0.00 | 0.00 | 97 | 1006.3 | |
| 20260510094517 | 11 | 0.0 | 0.0 | 0.00 | 0.00 | 0.00 | 97 | 1006.3 | |
| 20260510093517 | 11 | 0.0 | 0.0 | 0.00 | 0.00 | 0.00 | 97 | 1006.3 | |
| 20260510092516 | 11 | 0.0 | 0.0 | 0.00 | 0.00 | 0.00 | 97 | 1006.3 | |
| 20260510091517 | 11 | 0.0 | 0.0 | 0.00 | 0.00 | 0.00 | 97 | 1006.2 | |
| 20260510090517 | 11 | 0.0 | 0.0 | 0.00 | 0.00 | 0.00 | 97 | 1006.1 | |
| 20260510085516 | 11 | 0.0 | 0.0 | 0.00 | 0.00 | 0.00 | 97 | 1006.1 | |
| 20260510084516 | 11 | 0.0 | 0.0 | 0.00 | 0.00 | 0.00 | 97 | 1006.0 | |
| 20260510083518 | 11 | 0.0 | 0.0 | 0.00 | 0.00 | 0.00 | 97 | 1005.8 | |
| 20260510082517 | 11 | 0.0 | 0.0 | 0.00 | 0.00 | 0.00 | 97 | 1005.7 | |
| 20260510081517 | 11 | 0.0 | 0.0 | 0.00 | 0.00 | 0.00 | 97 | 1005.7 | |
| 20260510080517 | 11 | 0.0 | 0.0 | 0.00 | 0.00 | 0.00 | 97 | 1005.5 | |
| 20260510075557 | 11 | 0.0 | 0.0 | 0.00 | 0.00 | 0.00 | 97 | 1005.6 | |
| 20260510074517 | 11 | 0.0 | 0.0 | 0.00 | 0.00 | 0.00 | 97 | 1005.4 | |
| 20260510073537 | 12 | 0.0 | 0.0 | 0.00 | 0.00 | 0.00 | 97 | 1005.3 | |
| 20260510072517 | 12 | 0.0 | 0.0 | 0.00 | 0.00 | 0.00 | 97 | 1005.2 | |
| 20260510071517 | 12 | 0.0 | 0.0 | 0.00 | 0.00 | 0.00 | 97 | 1005.1 | |
| 20260510070523 | 12 | 0.0 | 0.0 | 0.00 | 0.00 | 0.00 | 96 | 1005.0 | |
| 20260510065517 | 12 | 0.0 | 0.0 | 0.00 | 0.00 | 0.00 | 96 | 1004.8 | |
| 20260510064517 | 12 | 0.0 | 0.0 | 0.00 | 0.00 | 0.00 | 96 | 1004.7 | |
| 20260510063517 | 12 | 0.0 | 0.0 | 0.00 | 0.00 | 0.00 | 96 | 1004.8 | |
| 20260510062537 | 12 | 0.0 | 0.0 | 0.00 | 0.00 | 0.00 | 96 | 1004.9 | |
| 20260510061516 | 12 | 0.0 | 0.0 | 0.00 | 0.00 | 0.00 | 96 | 1004.8 | |
| 20260510060517 | 12 | 0.0 | 0.0 | 0.00 | 0.00 | 0.00 | 96 | 1004.9 | |
| 20260510055517 | 12 | 0.0 | 0.0 | 0.00 | 0.00 | 0.00 | 96 | 1004.9 | |
| 20260510054516 | 13 | 0.0 | 0.0 | 0.00 | 0.00 | 0.00 | 96 | 1004.9 | |
| 20260510053517 | 13 | 0.0 | 0.0 | 0.00 | 0.00 | 0.00 | 96 | 1005.0 | |
| 20260510052517 | 13 | 0.0 | 0.0 | 0.00 | 0.00 | 0.00 | 96 | 1004.9 | |
| 20260510051516 | 13 | 0.0 | 0.0 | 0.00 | 0.00 | 0.00 | 96 | 1004.8 | |
| 20260510050517 | 13 | 0.0 | 0.0 | 0.00 | 0.00 | 0.00 | 96 | 1004.9 | |
| 20260510045538 | 13 | 0.0 | 0.0 | 0.00 | 0.00 | 0.00 | 96 | 1004.8 | |
| 20260510044557 | 13 | 0.0 | 0.0 | 0.00 | 0.00 | 0.00 | 96 | 1004.7 | |
| 20260510043517 | 13 | 0.0 | 0.0 | 0.00 | 0.00 | 0.00 | 96 | 1004.7 | |
| 20260510042537 | 13 | 0.0 | 0.0 | 0.00 | 0.00 | 0.00 | 96 | 1004.8 | |
| 20260510041516 | 13 | 0.0 | 0.0 | 0.00 | 0.00 | 0.00 | 96 | 1004.7 | |
| 20260510040537 | 14 | 0.0 | 0.0 | 0.00 | 0.00 | 0.00 | 95 | 1004.8 | |
| 20260510035537 | 14 | 0.0 | 0.0 | 0.00 | 0.00 | 0.00 | 95 | 1004.8 | |
| 20260510034517 | 14 | 0.0 | 0.0 | 0.00 | 0.00 | 0.00 | 95 | 1004.6 | |
| 20260510033517 | 15 | 0.0 | 0.0 | 0.00 | 0.00 | 0.00 | 95 | 1004.6 | |
| 20260510032517 | 15 | 0.0 | 0.0 | 0.00 | 0.00 | 0.00 | 95 | 1004.6 | |
| 20260510031516 | 15 | 0.0 | 0.0 | 0.00 | 0.00 | 0.00 | 94 | 1004.5 | |
| 20260510030516 | 15 | 0.0 | 0.0 | 0.00 | 0.00 | 0.00 | 94 | 1004.5 | |
| 20260510025517 | 15 | 0.0 | 0.0 | 0.00 | 0.00 | 0.00 | 94 | 1004.5 | |
| 20260510024517 | 15 | 0.0 | 0.0 | 0.00 | 0.00 | 0.00 | 93 | 1004.4 | |
| 20260510023517 | 15 | 0.0 | 0.0 | 0.00 | 0.00 | 0.00 | 93 | 1004.2 | |
| 20260510022517 | 16 | 0.0 | 0.0 | 0.00 | 0.00 | 0.00 | 92 | 1004.2 | |
| 20260510021517 | 16 | 0.0 | 0.0 | 0.00 | 0.00 | 0.00 | 92 | 1004.1 | |
| 20260510020516 | 16 | 0.0 | 0.0 | 0.00 | 0.00 | 0.00 | 91 | 1004.0 | |
| 20260510015516 | 16 | 0.0 | 0.0 | 0.00 | 0.00 | 0.00 | 91 | 1003.8 | |
| 20260510014517 | 16 | 0.0 | 0.0 | 0.00 | 0.00 | 0.00 | 91 | 1003.8 | |
| 20260510013516 | 16 | 0.0 | 0.0 | 0.00 | 0.00 | 0.00 | 90 | 1003.5 | |
| 20260510012537 | 16 | 0.0 | 0.0 | 0.00 | 0.00 | 0.00 | 91 | 1003.5 | |
| 20260510011517 | 16 | 0.0 | 0.0 | 0.00 | 0.00 | 0.00 | 90 | 1003.3 | |
| 20260510010557 | 16 | 0.0 | 0.0 | 0.00 | 0.00 | 0.00 | 90 | 1003.2 | |
| 20260510005517 | 17 | 0.0 | 0.0 | 0.00 | 0.00 | 0.00 | 89 | 1003.2 | |
| 20260510004518 | 17 | 0.0 | 0.0 | 0.00 | 0.00 | 0.00 | 89 | 1003.1 | |
| 20260510003517 | 17 | 0.0 | 0.0 | 0.00 | 0.00 | 0.00 | 88 | 1003.0 | |
| 20260510002516 | 17 | 0.0 | 0.0 | 0.00 | 0.00 | 0.00 | 86 | 1002.9 | |
| 20260510001516 | 18 | 0.0 | 0.0 | 0.00 | 0.00 | 0.00 | 84 | 1002.9 | |
| 20260510000517 | 18 | 0.0 | 0.0 | 0.00 | 0.00 | 0.00 | 83 | 1002.7 | |
| 20260509235517 | 18 | 0.0 | 0.0 | 0.00 | 0.00 | 0.00 | 82 | 1002.6 | |
| 20260509234557 | 19 | 0.0 | 0.0 | 0.00 | 0.00 | 0.00 | 80 | 1002.6 | |
| 20260509233517 | 19 | 0.0 | 0.0 | 0.00 | 0.00 | 0.00 | 79 | 1002.5 | |
| 20260509232516 | 20 | 0.0 | 0.0 | 0.00 | 0.00 | 0.00 | 76 | 1002.5 | |
| 20260509231517 | 20 | 0.0 | 0.0 | 0.00 | 0.00 | 0.00 | 74 | 1002.6 | |
| 20260509230518 | 20 | 0.0 | 0.0 | 0.00 | 0.00 | 0.00 | 73 | 1002.5 | |
| 20260509225517 | 20 | 0.0 | 0.0 | 0.00 | 0.00 | 0.00 | 73 | 1002.5 | |
| 20260509224517 | 20 | 0.0 | 0.0 | 0.00 | 0.00 | 0.00 | 72 | 1002.4 | |
| 20260509223517 | 21 | 0.0 | 0.0 | 0.00 | 0.00 | 0.00 | 70 | 1002.6 | |
| 20260509222517 | 21 | 0.0 | 0.0 | 0.00 | 0.00 | 0.00 | 71 | 1002.6 | |
| 20260509221517 | 21 | 0.0 | 0.0 | 0.00 | 0.00 | 0.00 | 66 | 1002.7 | |
| 20260509220516 | 21 | 0.0 | 0.0 | 0.00 | 0.00 | 0.00 | 64 | 1002.7 | |
| 20260509215517 | 21 | 0.0 | 0.0 | 0.00 | 0.00 | 0.00 | 63 | 1002.6 | |
| 20260509214517 | 21 | 0.0 | 0.0 | 0.00 | 0.00 | 0.00 | 63 | 1002.6 | |
| 20260509213517 | 21 | 0.0 | 0.0 | 0.00 | 0.00 | 0.00 | 64 | 1002.5 | |
| 20260509212516 | 21 | 0.0 | 0.0 | 0.00 | 0.00 | 0.00 | 63 | 1002.5 | |
| 20260509211537 | 21 | 0.0 | 0.0 | 0.00 | 0.00 | 0.00 | 61 | 1002.4 | |
| 20260509210517 | 21 | 0.0 | 0.0 | 0.00 | 0.00 | 0.00 | 64 | 1002.4 | |
| 20260509205536 | 21 | 0.0 | 0.0 | 0.00 | 0.00 | 0.00 | 65 | 1002.4 | |
| 20260509204516 | 21 | 197 | 0.0 | 1.6 | 0.00 | 0.00 | 0.00 | 67 | 1002.4 |
| 20260509203517 | 21 | 0.0 | 0.0 | 0.00 | 0.00 | 0.00 | 63 | 1002.3 | |
| 20260509202517 | 21 | 0.0 | 0.0 | 0.00 | 0.00 | 0.00 | 64 | 1002.3 | |
| 20260509201517 | 21 | 0.0 | 0.0 | 0.00 | 0.00 | 0.00 | 66 | 1002.5 | |
| 20260509200516 | 21 | 0.0 | 1.6 | 0.00 | 0.00 | 0.00 | 66 | 1002.8 | |
| 20260509195557 | 21 | 0.0 | 0.0 | 0.00 | 0.00 | 0.00 | 66 | 1002.9 | |
| 20260509194517 | 21 | 276 | 0.0 | 1.6 | 0.00 | 0.00 | 0.00 | 64 | 1003.0 |
| 20260509193516 | 21 | 0.0 | 0.0 | 0.00 | 0.00 | 0.00 | 64 | 1003.3 | |
| 20260509192517 | 21 | 0.0 | 0.0 | 0.00 | 0.00 | 0.00 | 65 | 1003.3 | |
| 20260509191517 | 21 | 0.0 | 1.6 | 0.00 | 0.00 | 0.00 | 63 | 1003.3 | |
| 20260509190517 | 21 | 273 | 0.0 | 1.6 | 0.00 | 0.00 | 0.00 | 63 | 1003.4 |
| 20260509185516 | 20 | 0.0 | 0.0 | 0.00 | 0.00 | 0.00 | 66 | 1003.6 | |
| 20260509184536 | 20 | 275 | 0.0 | 1.6 | 0.00 | 0.00 | 0.00 | 65 | 1003.7 |
| 20260509183517 | 20 | 0.0 | 1.6 | 0.00 | 0.00 | 0.00 | 65 | 1003.9 | |
| 20260509182517 | 20 | 0.0 | 0.0 | 0.00 | 0.00 | 0.00 | 65 | 1004.2 | |
| 20260509181557 | 20 | 0.0 | 1.6 | 0.00 | 0.00 | 0.00 | 65 | 1004.3 | |
| 20260509180517 | 20 | 255 | 0.0 | 1.6 | 0.00 | 0.00 | 0.00 | 64 | 1004.3 |
| 20260509175517 | 20 | 0.0 | 0.0 | 0.00 | 0.00 | 0.00 | 66 | 1004.5 | |
| 20260509174517 | 20 | 0.0 | 0.0 | 0.00 | 0.00 | 0.00 | 65 | 1004.6 | |
| 20260509173516 | 20 | 0.0 | 0.0 | 0.00 | 0.00 | 0.00 | 65 | 1004.6 | |
| 20260509172537 | 20 | 0.0 | 0.0 | 0.00 | 0.00 | 0.00 | 64 | 1004.6 | |
| 20260509171517 | 20 | 249 | 0.0 | 3.2 | 0.00 | 0.00 | 0.00 | 63 | 1004.6 |
| 20260509170517 | 20 | 266 | 0.0 | 1.6 | 0.00 | 0.00 | 0.00 | 62 | 1004.6 |
| 20260509165537 | 20 | 274 | 0.0 | 3.2 | 0.00 | 0.00 | 0.00 | 65 | 1004.6 |
| 20260509164516 | 19 | 0.0 | 0.0 | 0.00 | 0.00 | 0.00 | 64 | 1004.8 | |
| 20260509163519 | 19 | 0.0 | 0.0 | 0.00 | 0.00 | 0.00 | 64 | 1004.8 | |
| 20260509162537 | 19 | 0.0 | 0.0 | 0.00 | 0.00 | 0.00 | 64 | 1004.9 | |
| 20260509161517 | 19 | 0.0 | 1.6 | 0.00 | 0.00 | 0.00 | 63 | 1004.8 | |
| 20260509160517 | 19 | 0.0 | 0.0 | 0.00 | 0.00 | 0.00 | 64 | 1004.9 | |
| 20260509155516 | 19 | 0.0 | 0.0 | 0.00 | 0.00 | 0.00 | 63 | 1004.9 | |
| 20260509154537 | 19 | 270 | 0.0 | 3.2 | 0.00 | 0.00 | 0.00 | 63 | 1005.2 |
| 20260509153517 | 18 | 255 | 0.0 | 1.6 | 0.00 | 0.00 | 0.00 | 65 | 1005.2 |
| 20260509152517 | 18 | 0.0 | 1.6 | 0.00 | 0.00 | 0.00 | 68 | 1005.3 | |
| 20260509151517 | 18 | 0.0 | 0.0 | 0.00 | 0.00 | 0.00 | 69 | 1005.1 | |
| 20260509150517 | 17 | 0.0 | 0.0 | 0.00 | 0.00 | 0.00 | 74 | 1005.3 | |
| 20260509145517 | 17 | 0.0 | 0.0 | 0.00 | 0.00 | 0.00 | 71 | 1005.5 | |
| 20260509144536 | 16 | 0.0 | 0.0 | 0.00 | 0.00 | 0.00 | 72 | 1005.6 |